This demonstration page uses our WeatherBlox Daily Observations layout. Learn more.

39.92423, -83.80882

Hourly Observations for June 26, 2016

Temp ( °F °C ) Dew Point ( °F °C ) Humidity (%) Winds ( mph kmh ) Pressure ( in mb ) Visibility ( mi km ) Precip ( " mm )
12:56 am 00:56 Clear 73 22.7 65 18.3 76 76 SSE 6 9 30.12 1020 10 16.0934 0 0
1:56 am 01:56 Clear 69 20.5 64 17.7 84 84 E 3 6 30.12 1020 10 16.0934 0 0
2:56 am 02:56 Clear 72 22.2 66 18.8 81 81 SSE 7 11 30.11 1020 10 16.0934 0 0
3:56 am 03:56 Clear 72 22.2 66 18.8 81 81 SSE 8 13 30.11 1020 10 16.0934 0 0
4:56 am 04:56 Clear 72 22.2 67 19.4 84 84 S 5 7 30.11 1020 10 16.0934 0 0
5:56 am 05:56 Clear 71 21.6 67 19.4 87 87 S 6 9 30.1 1019 10 16.0934 0 0
6:56 am 06:56 Sunny 72 22.2 68 20 87 87 S 5 7 30.11 1020 10 16.0934 0 0
7:56 am 07:56 Sunny 74 23.3 69 20.5 84 84 S 7 11 30.11 1020 10 16.0934 0 0
8:56 am 08:56 Sunny 79 26.1 70 21.1 74 74 S 7 11 30.12 1020 10 16.0934 0 0
9:56 am 09:56 Sunny 82 27.7 70 21.1 67 67 SSW 8 13 30.12 1020 10 16.0934 0 0
10:56 am 10:56 Sunny 85 29.4 70 21.1 61 61 S 8 13 30.12 1020 10 16.0934 0 0
11:56 am 11:56 Sunny 88 31.1 70 21.1 55 55 SW 8 13 30.11 1020 10 16.0934 0 0
12:56 pm 12:56 Sunny 90 32.2 71 21.6 54 54 SSW 9 15 30.09 1019 10 16.0934 0 0
1:56 pm 13:56 Mostly Sunny 91 32.7 72 22.2 54 54 SSW 10 17 30.08 1019 10 16.0934 0 0
2:56 pm 14:56 Partly Cloudy 90 32.2 72 22.2 56 56 SSW 6 9 30.06 1018 10 16.0934 0 0
3:56 pm 15:56 Mostly Sunny 92 33.3 72 22.2 52 52 S 9 15 30.04 1017 10 16.0934 0 0
4:56 pm 16:56 Mostly Sunny 93 33.8 72 22.2 51 51 SSW 12 19 30.02 1017 10 16.0934 0 0
5:56 pm 17:56 Mostly Sunny 93 33.8 73 22.7 52 52 S 9 15 29.99 1016 10 16.0934 0 0
6:56 pm 18:56 Sunny 89 31.6 72 22.2 57 57 SSW 8 13 29.99 1016 10 16.0934 0 0
7:56 pm 19:56 Sunny with Nearby Thunderstorms 87 30.5 72 22.2 61 61 WSW 10 17 30.01 1016 10 16.0934 0 0
8:14 pm 20:14 Partly Cloudy with Light Rain 84 29 73 23 70 70 WSW 3 6 29.97 1015 10 16.0934 0 0.0254
8:56 pm 20:56 Sunny 84 28.8 71 21.6 65 65 SSW 7 11 30 1016 10 16.0934 0 0.0254
9:56 pm 21:56 Mostly Cloudy 80 26.6 70 21.1 72 72 NNW 12 19 30.05 1018 10 16.0934 0 0
10:04 pm 22:04 Mostly Cloudy 79 26 72 22 79 79 NW 14 22 30.06 1018 10 16.0934 0 0
10:30 pm 22:30 Mostly Cloudy 75 24 72 22 89 89 W 14 22 30.09 1019 10 16.0934 0 0.0254
10:48 pm 22:48 Mostly Cloudy with Nearby Thunderstorms 73 23 72 22 94 94 WSW 15 24 30.06 1018 2.5 4.02335 0.03 0.762
10:56 pm 22:56 Cloudy with Rain 72 22.2 71 21.6 96 96 SW 14 22 30.06 1018 2 3.21868 0.08 2.032
11:02 pm 23:02 Mostly Cloudy with Light Rain 72 22 72 22 100 100 SW 14 22 30.06 1018 3 4.82802 0 0.0254
11:56 pm 23:56 Cloudy with Light Rain 73 22.7 71 21.6 94 94 W 3 6 30.06 1018 6 9.65604 0.03 0.762

Powered by AerisWeather